DELTA 1 R/B, 3616

Orbit data source: Space-Track

DELTA 1 R/B, 3616 is space debris in SSO originally from a launch on Sun, 15 Dec 1968 UTC launched from the Air Force Western Test Range (AFWTR). Debris objects in space refer to the collection of defunct objects orbiting the Earth. Examples of debris include non-operational satellites, rocket bodies, and fragments generated from explosions, collisions, or faulty payload assembly.

Loading next visibility...
DELTA 1 R/B details
Identifier
3616, 1968-114B
Orbit
SSO
Last TLE update5 hours ago
Origin
Flag of USGSFC (US)
ManufacturerAerojet
MissionSpacecraft
Bus & MotorABLESTAR, Unknown motor
Mass~785 kg wet, ~785 kg dry
Launch date (UTC)
1968-12-15 (56 years ago)
Launch vehicleUnknown
Launch site
Air Force Western Test Range (AFWTR)
Object type
Payload
Rocket body
Debris
Shape & HBRCyl, 5.2 m
Radar Cross Section6.487 m², Large (>1 m²)

Expand to show TLE details & history

TLE from 5 hours ago
0 DELTA 1 R/B
1 03616U 68114B   24361.60336679 -.00000026  00000-0  11339-3 0  9991
2 03616 101.6129 308.8916 0013496 343.4331 189.5279 12.51389585561355
Epoch: 2024-12-26T14:28Z
Definitive object data (Epoch: 2024-12-26T14:28:50.89Z)
Latitude6.85315°
Longitude177.50748°
Altitude1,471.076 km
Speed7.123 km/s
True Right ascension08h 41m 11s
True Declination6° 48' 58"
Sunlit
Object was in full shadow at TLE epoch
Visualization TLE readout
Latitude15.02166°
Longitude-6.84708°
Altitude1,451.637 km
Speed7.142 km/s
Apparent Right ascension22h 36m 03s
Apparent Declination-29° 01' 09"
Sunlit
Object is in daylight
Visualization observer readout
Local Sidereal Time18:46:26
Azimuth132.47° SE
Elevation2.869°
Doppler factor1
Orbital elements
Apogee altitude1,466.798 km
Perigee altitude1,445.652 km
Semi-major axis7,834.362 km
Eccentricity0.0013496
Inclination101.6129°
RAAN308.8916°
Arg. of periapsis343.4331°
True anomaly189.50234°
Mean anomaly189.5279°
Eccentric anomaly189.51512°
Mean motion3.12995 °/min
BSTAR0.00011339
Orbital period115.02 mins
Loading maneuver chart data...
Loading historical data...
Loading historical data...
Loading historical data...
Loading historical data...
Loading historical data...
Loading historical data...
Loading historical data...

DELTA 1 R/B Visibility forecast

Observer location: undefined°, undefined

Span
Click to sort rows by Start time (UTC) header in descending order
Start Az.
Max El. time (UTC)
Max El. Az.
Max El.
End time (UTC)
End Az.
14 mins2024-12-26 19:26:47.377Z124.593° SE2024-12-26 19:33:47.377Z55.466° ENE33.401°2024-12-26 19:40:47.377Z356.325° N
14 mins2024-12-26 21:19:47.377Z193.132° SSW2024-12-26 21:25:47.377Z250.696° W35.125°2024-12-26 21:33:47.377Z329.685° NNW
15 mins2024-12-27 09:22:47.377Z24.624° NE2024-12-27 09:29:47.377Z111.602° ESE42.677°2024-12-27 09:37:47.377Z186.919° SSW
11 mins2024-12-27 11:16:47.377Z350.323° N2024-12-27 11:21:47.377Z305.29° NW25.858°2024-12-27 11:27:47.377Z252.889° W
9 mins2024-12-27 18:32:47.377Z84.412° E2024-12-27 18:36:47.377Z51.623° ENE18.613°2024-12-27 18:41:47.377Z12.357° NNE
|